Wind_Speed
23 23 24 25 25 25 25 26 26 26 26 26 24 24 24 23 24 24 25 26 26 26 26 26 26 27 26 27 27 26 26 25 25 25 26 26 26 27 27 28 29 31 32
23 23 24 24 24 24 24 24 24 25 25 24 24 24 24 23 24 25 26 26 25 26 26 26 26 26 25 25 25 24 24 24 24 23 24 25 25 25 25 26 28 29 30
22 22 23 23 23 23 23 23 24 24 24 24 24 24 24 23 24 24 25 25 24 25 25 26 25 24 24 23 23 23 23 24 24 24 23 24 24 24 25 26 26 27 27
21 22 21 22 22 21 21 22 22 23 23 23 23 24 23 23 23 23 24 24 24 25 25 24 23 23 23 22 23 23 23 23 24 24 24 24 24 24 24 25 24 24 25
20 20 20 20 20 20 20 20 21 22 22 22 23 23 23 23 23 23 23 23 24 23 23 22 21 20 20 21 22 22 23 23 24 25 25 25 24 24 23 24 24 23 23
19 19 19 19 19 19 19 20 21 21 22 22 22 22 23 23 22 22 22 22 22 22 21 20 20 20 20 21 22 21 22 22 22 23 23 23 23 24 24 24 24 23 23
17 18 18 18 17 18 18 19 20 21 22 21 22 22 22 22 22 22 21 21 22 21 20 20 20 20 20 20 20 20 21 21 23 23 22 22 22 22 23 23 23 23 23
16 15 16 17 17 17 18 19 19 21 22 22 21 21 21 21 22 22 22 22 22 21 21 20 20 20 20 20 19 19 19 20 21 21 21 21 22 22 22 22 23 23 23
14 15 15 16 16 17 18 19 20 21 21 21 21 20 21 22 23 22 22 22 22 21 20 20 20 20 20 19 19 19 20 20 20 21 21 21 21 21 21 21 21 21 21
14 15 16 16 16 18 18 19 19 19 20 20 20 20 21 22 22 22 22 22 21 20 20 20 20 19 19 19 20 20 20 21 21 21 21 21 21 21 21 22 21 21 21
14 15 15 15 16 18 18 18 18 19 19 20 21 21 22 22 22 22 22 21 20 20 20 20 20 19 19 20 20 20 20 21 21 21 20 21 21 21 21 22 21 21 20
14 15 15 16 17 17 18 18 18 18 20 21 22 22 22 22 22 22 22 22 21 21 20 20 20 20 20 20 20 21 21 21 21 21 20 20 20 20 21 21 21 21 21
13 14 16 16 17 17 18 18 18 19 19 21 21 22 22 22 22 22 22 22 21 21 21 21 21 21 21 21 21 21 21 21 21 21 20 20 21 20 20 21 21 21 21
13 14 15 16 16 17 18 18 18 18 19 20 21 22 23 23 23 23 22 23 22 22 22 22 22 22 22 22 22 22 21 21 20 21 20 21 21 21 21 21 21 21 21
13 14 15 16 16 17 17 18 18 19 19 20 21 23 23 23 24 24 24 24 23 23 23 23 23 23 23 23 23 23 22 22 22 22 21 20 20 21 21 21 21 21 21
13 14 15 16 17 17 17 18 19 19 19 20 22 23 24 24 24 24 25 25 25 25 25 25 24 24 23 23 23 23 24 23 23 22 21 21 21 21 21 21 21 21 21
13 14 16 17 17 18 18 18 19 20 20 21 22 23 24 25 25 26 26 26 27 27 26 25 25 24 24 24 24 25 25 24 24 23 22 22 22 21 21 21 21 21 21
13 14 15 16 17 18 19 19 20 21 22 22 23 25 25 26 27 27 27 27 27 26 26 25 24 25 26 25 24 25 25 25 24 23 22 22 22 21 21 21 21 21 21
13 14 15 16 17 18 19 20 21 21 22 23 24 26 26 26 27 27 28 28 27 27 26 26 25 26 27 27 26 25 25 25 24 23 22 21 21 21 21 21 22 22 22
13 14 15 16 18 19 20 21 22 22 23 24 25 26 26 26 27 28 29 29 28 27 27 27 27 27 27 27 27 26 25 25 24 22 22 21 21 21 21 21 21 22 21
13 14 16 17 18 19 20 21 22 23 24 25 26 27 27 28 29 29 30 30 30 29 29 28 28 27 26 26 26 26 26 25 24 23 23 22 22 22 22 21 21 22 21
13 14 16 17 19 20 21 22 23 24 24 25 26 27 28 29 30 31 31 31 31 31 30 29 28 27 27 26 26 26 25 25 25 25 25 24 23 23 22 21 21 21 21
13 15 16 17 19 20 21 22 23 24 25 26 27 27 28 30 30 31 32 32 32 32 32 30 29 28 27 27 27 27 26 25 25 25 25 24 23 22 22 21 21 21 21
13 15 16 18 19 20 21 22 23 24 25 26 27 28 29 30 31 31 32 32 32 32 32 31 30 29 28 28 28 28 27 26 26 25 24 23 22 21 21 21 21 21 20
14 15 17 18 19 20 21 22 23 25 26 27 27 28 29 30 30 31 32 32 32 32 32 32 31 30 30 29 29 29 28 28 27 26 24 23 22 22 21 21 20 20 19
14 16 17 18 19 20 21 23 24 25 27 27 28 29 29 29 30 31 32 32 32 32 33 33 32 31 31 31 30 30 30 29 28 26 24 23 23 22 21 21 20 20 19
Wind_Direction
302 305 304 306 307 307 308 309 310 312 313 312 309 307 307 305 304 305 303 302 301 299 298 296 294 292 290 287 285 283 282 281 280 277 274 273 272 271 271 271 269 267 264
303 306 309 308 309 309 311 312 314 313 314 315 312 310 309 307 306 307 305 303 301 300 299 299 296 295 293 290 286 284 282 281 279 278 276 274 274 273 272 272 270 267 265
305 308 311 311 311 311 314 315 317 316 316 316 314 314 313 311 308 308 307 306 305 302 300 300 299 296 293 291 287 284 282 281 280 281 278 277 277 277 277 275 272 271 269
306 309 312 315 316 316 315 316 319 319 320 319 318 318 317 316 313 311 310 309 307 305 303 303 303 299 295 292 290 288 285 285 283 282 280 280 281 282 282 280 277 274 272
310 311 314 317 320 321 319 320 321 323 324 323 321 321 320 318 315 312 311 311 312 310 307 306 304 302 299 295 294 292 288 288 286 285 282 282 282 283 283 281 280 276 273
312 314 317 318 320 323 323 323 324 324 325 325 324 323 321 320 318 316 314 314 316 315 314 310 305 301 301 300 298 294 291 289 288 286 285 284 282 281 282 281 280 275 271
314 315 318 321 325 326 326 326 325 326 328 326 327 327 324 322 322 321 321 319 319 318 317 315 311 307 306 305 301 299 296 293 291 289 287 288 285 283 282 281 280 277 272
319 320 323 324 327 329 329 329 329 329 330 330 331 332 330 329 329 327 324 323 323 321 318 315 314 311 308 306 304 302 300 298 295 292 290 289 287 286 284 281 279 277 272
323 325 329 332 334 332 331 330 330 331 331 332 335 337 336 334 333 332 330 329 327 325 321 319 317 316 314 311 307 305 302 300 298 294 291 291 288 286 284 281 280 277 275
327 330 333 334 335 336 335 334 335 335 337 338 338 338 337 335 335 334 334 333 331 329 326 324 322 321 318 314 310 309 306 301 299 296 293 292 290 287 285 283 281 278 275
336 337 336 338 338 338 338 339 339 338 340 341 341 340 339 339 339 339 337 336 335 332 330 328 326 325 322 317 312 311 310 306 303 299 296 292 290 286 284 282 281 280 278
341 341 340 339 339 339 339 339 339 341 342 343 343 343 343 342 341 340 340 339 337 335 334 331 329 327 326 323 319 314 312 310 307 303 299 298 295 290 286 284 281 280 280
344 342 341 341 341 342 341 341 342 344 344 345 345 346 345 344 343 343 341 339 338 334 332 331 330 329 326 325 321 317 315 314 310 306 302 299 298 293 290 287 283 281 280
345 342 341 342 343 343 343 344 344 344 345 347 347 345 344 344 344 344 342 340 338 335 331 330 329 329 327 324 322 318 317 316 314 310 305 301 299 297 293 290 286 282 280
345 345 345 345 345 344 343 345 345 345 345 346 346 345 344 344 343 343 341 339 338 336 335 332 330 328 325 324 323 321 319 317 314 310 305 303 302 300 297 292 288 284 281
348 348 349 348 346 346 345 346 347 346 345 344 343 343 343 343 343 341 338 338 337 336 334 333 331 329 327 326 325 323 320 317 313 309 307 305 303 299 295 292 288 285 283
348 350 351 351 350 349 348 346 346 346 345 344 344 344 343 342 341 340 338 336 336 336 336 335 333 331 329 327 326 325 323 319 315 311 309 307 304 301 295 293 292 288 284
349 350 351 352 351 350 350 349 348 348 347 345 345 344 344 343 342 341 341 340 339 337 336 335 334 333 332 329 327 327 326 324 320 315 313 311 308 303 299 296 294 292 288
347 349 350 351 351 351 350 351 350 349 347 346 345 344 345 346 346 345 344 343 341 340 339 337 334 333 332 331 330 328 327 327 323 319 315 314 311 307 302 298 297 295 291
346 347 347 348 349 350 350 351 350 349 348 348 347 347 348 348 348 346 345 343 342 341 339 338 336 334 332 331 330 329 327 327 326 321 317 315 312 309 305 301 298 295 292
347 348 349 349 351 353 353 352 351 350 351 350 350 350 351 350 349 348 346 345 342 340 338 336 336 336 335 334 332 330 329 328 326 323 320 316 313 310 308 306 301 297 296
348 349 350 351 352 352 352 351 351 352 352 352 351 350 350 350 350 350 348 348 346 343 340 338 337 337 336 335 334 332 330 328 326 323 321 319 314 311 310 307 303 300 299
346 348 348 349 351 351 352 354 354 353 353 352 350 350 349 349 350 349 349 349 348 347 345 342 341 340 339 337 336 334 332 330 328 326 324 322 319 315 312 310 307 304 302
347 348 349 350 352 353 354 354 354 354 353 351 350 349 350 350 351 351 351 350 349 348 348 347 345 344 342 340 338 335 333 331 330 329 327 324 323 320 317 315 312 309 306
346 348 349 350 351 353 354 354 353 353 352 352 352 352 352 352 352 352 352 352 350 350 349 348 348 347 346 344 342 340 337 334 332 329 327 325 324 322 320 318 316 314 311
344 346 348 349 350 352 353 353 352 352 352 353 353 353 353 353 352 353 354 354 353 352 351 350 349 348 347 346 345 343 340 338 335 331 327 326 324 322 320 318 316 314 311
Height
5769 5766 5763 5760 5757 5755 5752 5749 5745 5742 5739 5736 5733 5730 5727 5724 5722 5719 5716 5714 5711 5709 5706 5704 5701 5699 5697 5695 5694 5694 5693 5692 5692 5692 5690 5689 5688 5688 5688 5688 5688 5689 5689
5763 5761 5758 5755 5752 5750 5747 5744 5741 5738 5735 5731 5728 5725 5722 5719 5716 5713 5710 5707 5705 5702 5699 5697 5694 5692 5690 5688 5687 5686 5685 5684 5684 5683 5682 5681 5680 5680 5679 5679 5679 5679 5679
5759 5756 5753 5750 5748 5745 5742 5739 5736 5733 5730 5726 5723 5720 5716 5713 5710 5707 5704 5701 5698 5696 5693 5690 5687 5685 5683 5681 5680 5678 5678 5677 5676 5676 5675 5674 5673 5672 5671 5671 5670 5670 5670
5755 5752 5749 5746 5743 5741 5738 5735 5732 5729 5725 5722 5718 5715 5711 5708 5705 5702 5699 5695 5692 5689 5686 5683 5681 5679 5677 5675 5673 5671 5670 5670 5669 5668 5667 5666 5666 5665 5664 5663 5662 5662 5662
5750 5748 5745 5742 5740 5737 5734 5731 5728 5725 5722 5718 5714 5710 5707 5703 5700 5696 5693 5690 5687 5683 5680 5678 5675 5673 5671 5669 5667 5665 5664 5663 5662 5661 5660 5660 5659 5657 5656 5655 5655 5654 5654
5746 5744 5741 5739 5736 5734 5731 5728 5725 5722 5718 5714 5710 5706 5703 5699 5695 5691 5688 5685 5682 5678 5675 5672 5670 5668 5665 5663 5661 5659 5658 5657 5655 5654 5653 5652 5651 5650 5649 5648 5647 5647 5647
5743 5740 5738 5736 5733 5731 5728 5725 5722 5718 5714 5710 5707 5703 5699 5695 5691 5687 5684 5680 5677 5674 5670 5668 5665 5663 5660 5658 5656 5654 5652 5650 5649 5648 5647 5645 5644 5643 5642 5641 5640 5640 5640
5740 5737 5736 5733 5731 5728 5725 5722 5719 5716 5712 5708 5704 5700 5696 5692 5688 5684 5680 5676 5672 5669 5666 5663 5660 5658 5655 5653 5651 5649 5647 5645 5643 5642 5640 5639 5637 5636 5635 5634 5633 5633 5633
5737 5735 5733 5731 5728 5726 5723 5720 5717 5713 5709 5705 5701 5697 5693 5689 5685 5680 5676 5672 5668 5665 5662 5659 5656 5653 5650 5648 5646 5644 5642 5639 5638 5636 5634 5633 5631 5630 5628 5627 5627 5626 5626
5736 5734 5731 5729 5727 5724 5721 5717 5714 5711 5707 5703 5698 5694 5690 5686 5682 5677 5673 5669 5665 5662 5658 5655 5652 5649 5646 5643 5641 5638 5636 5634 5632 5630 5628 5626 5625 5624 5622 5621 5620 5619 5619
5735 5732 5730 5728 5725 5722 5719 5716 5712 5708 5705 5701 5697 5692 5688 5684 5679 5674 5670 5666 5662 5658 5654 5651 5648 5645 5641 5638 5636 5633 5631 5628 5626 5624 5622 5620 5619 5617 5616 5615 5614 5613 5612
5733 5731 5729 5726 5723 5720 5717 5714 5710 5706 5703 5699 5695 5690 5685 5681 5676 5672 5667 5663 5658 5654 5651 5648 5644 5641 5637 5634 5631 5628 5625 5623 5620 5618 5616 5614 5612 5611 5609 5608 5607 5606 5605
5732 5730 5727 5725 5722 5718 5715 5712 5708 5705 5701 5697 5693 5688 5684 5679 5674 5669 5665 5660 5655 5651 5648 5644 5641 5637 5633 5630 5627 5623 5620 5618 5615 5613 5610 5608 5606 5604 5603 5601 5600 5599 5598
5731 5729 5726 5723 5720 5717 5713 5710 5707 5703 5699 5695 5691 5686 5681 5677 5672 5667 5662 5657 5653 5649 5645 5641 5637 5633 5630 5626 5622 5619 5615 5612 5609 5607 5604 5602 5600 5598 5596 5595 5593 5592 5591
5730 5727 5724 5722 5719 5715 5712 5708 5705 5701 5697 5692 5688 5684 5679 5674 5669 5664 5659 5655 5650 5645 5641 5637 5633 5630 5626 5621 5617 5613 5610 5607 5604 5601 5598 5595 5593 5591 5589 5588 5587 5585 5584
5729 5726 5723 5720 5717 5714 5710 5707 5703 5699 5695 5691 5687 5682 5677 5672 5667 5662 5657 5652 5647 5642 5638 5633 5629 5625 5620 5616 5612 5608 5605 5601 5598 5595 5591 5589 5586 5584 5582 5581 5579 5578 5576
5727 5725 5722 5719 5716 5712 5709 5705 5701 5698 5693 5689 5684 5680 5675 5669 5664 5659 5654 5649 5644 5639 5634 5629 5625 5620 5616 5611 5607 5603 5599 5595 5592 5588 5585 5582 5579 5577 5575 5573 5571 5570 5569
5726 5724 5721 5718 5715 5711 5707 5704 5699 5695 5691 5686 5682 5677 5672 5666 5661 5656 5651 5646 5641 5635 5630 5625 5621 5616 5611 5606 5602 5598 5593 5589 5585 5582 5579 5575 5572 5570 5568 5566 5564 5562 5561
5725 5723 5720 5717 5713 5710 5706 5702 5697 5693 5688 5684 5679 5674 5669 5664 5658 5653 5648 5642 5637 5631 5626 5621 5616 5611 5606 5602 5597 5592 5588 5583 5579 5576 5572 5569 5566 5563 5561 5559 5557 5555 5553
5724 5722 5719 5715 5712 5708 5704 5700 5695 5691 5686 5681 5677 5672 5666 5661 5656 5650 5645 5639 5633 5627 5622 5617 5612 5607 5602 5597 5592 5587 5582 5578 5574 5570 5566 5563 5560 5557 5554 5552 5550 5548 5546
5723 5720 5717 5714 5710 5706 5702 5698 5694 5689 5684 5679 5674 5669 5664 5659 5653 5647 5641 5635 5629 5623 5618 5612 5607 5602 5597 5592 5587 5582 5577 5573 5569 5565 5561 5557 5554 5551 5548 5546 5543 5541 5539
5722 5719 5716 5713 5709 5705 5701 5697 5692 5687 5683 5678 5673 5667 5662 5656 5651 5645 5638 5632 5626 5619 5613 5608 5602 5597 5592 5587 5582 5577 5572 5568 5564 5559 5555 5551 5548 5545 5542 5539 5537 5535 5532
5721 5718 5715 5711 5708 5704 5699 5695 5691 5686 5681 5676 5671 5666 5660 5654 5648 5642 5636 5629 5623 5616 5609 5603 5598 5592 5587 5582 5577 5573 5568 5563 5559 5554 5550 5546 5542 5539 5536 5533 5531 5528 5526
5719 5716 5713 5710 5706 5702 5698 5694 5690 5685 5680 5675 5670 5664 5658 5652 5646 5640 5633 5627 5620 5613 5606 5600 5594 5588 5583 5578 5573 5568 5563 5558 5553 5549 5545 5540 5537 5533 5530 5527 5525 5522 5520
5718 5715 5712 5709 5705 5701 5697 5693 5689 5684 5679 5673 5668 5662 5656 5650 5644 5638 5631 5625 5618 5611 5604 5598 5591 5586 5580 5574 5569 5564 5558 5554 5549 5544 5540 5536 5532 5529 5525 5522 5519 5517 5514
5716 5714 5711 5707 5704 5700 5696 5692 5687 5682 5677 5672 5666 5660 5654 5649 5643 5636 5630 5623 5616 5609 5603 5596 5589 5583 5577 5572 5566 5560 5555 5549 5544 5539 5535 5531 5527 5524 5520 5517 5514 5511 5509